This demonstration page uses our WeatherBlox Daily Observations layout. Learn more.

Left ArrowRight Arrow

40.92501, -98.34201

Hourly Observations for September 19, 2022

Temp ( °F °C ) Dew Point ( °F °C ) Humidity (%) Winds ( mph kmh ) Pressure ( in mb ) Visibility ( mi km ) Precip ( " mm )
12:53 am 00:53 Clear with Mist and Fog 63 17.2 60 15.6 90 90 Calm 29.94 1014 4 6 0.00 0.00
1:31 am 01:31 Mostly Clear with Mist and Fog 62 16.7 61 16.1 96 96 Calm 29.93 1014 1 2 0.00 0.00
1:41 am 01:41 Clear with Mist and Fog 62 16.7 60 15.6 93 93 Calm 29.92 1013 2 3 0.00 0.00
1:43 am 01:43 Clear with Mist and Fog 62 16.7 60 15.6 93 93 Calm 29.92 1013 3 5 0.00 0.00
1:53 am 01:53 Clear with Mist and Fog 61 16.1 58 14.4 90 90 Calm 29.94 1014 5 8 0.00 0.00
2:11 am 02:11 Clear with Mist and Fog 62 16.7 59 15 90 90 Calm 29.93 1014 2 2 0.00 0.00
2:18 am 02:18 Mostly Clear with Fog 61 16.1 59 15 93 93 Calm 29.93 1013 0 0 0.00 0.00
2:24 am 02:24 Clear with Fog 60 15.6 59 15 96 96 Calm 29.93 1014 1 1 0.00 0.00
2:31 am 02:31 Mostly Clear with Fog 60 15.6 59 15 96 96 Calm 29.93 1014 0 0 0.00 0.00
2:47 am 02:47 Mostly Clear with Mist and Fog 57 14 57 14 100 100 NNE 6 9 29.94 1014 1 2 0.00 0.00
2:53 am 02:53 Mostly Clear with Mist and Fog 58 14.4 57 13.9 97 97 NNE 5 7 29.94 1014 2 3 0.00 0.00
3:25 am 03:25 Mostly Clear with Mist and Fog 59 15 57 13.9 93 93 N 5 7 29.94 1014 1 1 0.00 0.00
3:32 am 03:32 Mostly Clear with Mist and Fog 59 15 57 13.9 93 93 NE 3 6 29.94 1014 1 2 0.00 0.00
3:42 am 03:42 Mostly Clear with Mist and Fog 58 14.4 57 13.9 97 97 NNE 6 9 29.94 1014 3 4 0.00 0.00
3:53 am 03:53 Clear with Mist and Fog 58 14.4 57 13.9 97 97 NE 5 7 29.93 1014 3 5 0.00 0.00
4:53 am 04:53 Clear with Mist and Fog 59 15 56 13.3 90 90 Calm 29.93 1014 3 5 0.00 0.00
5:13 am 05:13 Clear with Mist and Fog 59 15 57 13.9 93 93 ENE 5 7 29.92 1013 3 4 0.00 0.00
5:43 am 05:43 Clear with Mist and Fog 58 14.4 56 13.3 93 93 ENE 3 6 29.93 1013 3 5 0.00 0.00
5:53 am 05:53 Clear with Mist and Fog 58 14.4 56 13.3 93 93 E 5 7 29.93 1013 3 4 0.00 0.00
6:04 am 06:04 Clear with Mist and Fog 59 15 57 13.9 93 93 E 5 7 29.92 1013 4 6 0.00 0.00
6:53 am 06:53 Clear with Mist and Fog 58 14.4 56 13.3 93 93 NE 5 7 29.93 1013 3 5 0.00 0.00
7:19 am 07:19 Sunny with Mist and Fog 58 14.4 57 13.9 97 97 ENE 3 6 29.93 1013 2 3 0.00 0.00
7:27 am 07:27 Partly Cloudy with Mist and Fog 59 15 57 13.9 93 93 ENE 5 7 29.92 1013 2 3 0.00 0.00
7:38 am 07:38 Mostly Cloudy with Mist and Fog 60 15.6 58 14.4 93 93 E 5 7 29.92 1013 3 4 0.00 0.00
7:50 am 07:50 Cloudy with Mist and Fog 64 17.8 62 16.7 93 93 E 7 11 29.93 1014 1 1 0.00 0.00
8:06 am 08:06 Partly Cloudy with Fog 65 18.3 64 17.8 97 97 ESE 10 17 29.90 1013 0 0 0.00 0.00
8:13 am 08:13 Partly Cloudy with Fog 65 18.3 64 17.8 97 97 ESE 9 15 29.90 1013 0 0 0.00 0.00
8:26 am 08:26 Partly Cloudy with Fog 66 18.9 64 17.8 93 93 ESE 8 13 29.90 1012 0 0 0.00 0.00
8:41 am 08:41 Partly Cloudy with Fog 66 18.9 65 18.3 96 96 SE 8 13 29.90 1012 1 1 0.00 0.00
8:53 am 08:53 Cloudy with Mist and Fog 67 19.4 65 18.3 93 93 SE 12 19 29.93 1013 1 1 0.00 0.00
9:26 am 09:26 Cloudy with Mist and Fog 68 20 66 18.9 93 93 SE 9 15 29.88 1012 1 2 0.00 0.00
9:50 am 09:50 Cloudy with Mist and Fog 68 20 66 19 94 94 SE 10 17 29.88 1012 3 4 0.00 0.00
9:55 am 09:55 Cloudy with Mist and Fog 69 20.6 67 19.4 93 93 SE 10 17 29.88 1012 3 5 0.00 0.00
10:38 am 10:38 Cloudy 72 22.2 67 19.4 84 84 ESE 10 17 29.86 1011 8 13 0.00 0.00
10:53 am 10:53 Partly Cloudy 74 23.3 67 19.4 79 79 SE 9 15 29.91 1013 9 14 0.00 0.00
11:53 am 11:53 Sunny 80 26.7 68 20 67 67 SE 9 15 29.89 1012 10 16 0.00 0.00
12:53 pm 12:53 Sunny 87 30.6 65 18.3 48 48 S 12 19 29.86 1011 10 16 0.00 0.00
1:53 pm 13:53 Sunny 91 32.8 65 18.3 42 42 S 12 19 29.84 1011 10 16 0.00 0.00
2:53 pm 14:53 Sunny 94 34.4 67 19.4 41 41 SSE 9 15 29.81 1010 10 16 0.00 0.00
3:53 pm 15:53 Sunny 96 35.6 59 15 29 29 S 16 26 29.79 1009 10 16 0.00 0.00
4:53 pm 16:53 Sunny 96 35.6 57 13.9 27 27 S 13 20 29.78 1009 10 16 0.00 0.00
5:53 pm 17:53 Sunny 96 35.6 57 13.9 27 27 S 12 19 29.78 1009 10 16 0.00 0.00
6:53 pm 18:53 Sunny 92 33.3 57 13.9 31 31 S 8 13 29.78 1008 10 16 0.00 0.00
7:53 pm 19:53 Clear 83 28.3 59 15 44 44 SSE 9 15 29.78 1009 10 16 0.00 0.00
8:53 pm 20:53 Clear 83 28.3 61 16.1 48 48 S 8 13 29.79 1009 10 16 0.00 0.00
9:53 pm 21:53 Clear 78 25.6 61 16.1 56 56 S 8 13 29.81 1010 10 16 0.00 0.00
10:53 pm 22:53 Clear 77 25 60 15.6 56 56 S 10 17 29.81 1009 10 16 0.00 0.00
11:53 pm 23:53 Clear 76 24.4 59 15 56 56 S 9 15 29.80 1009 10 16 0.00 0.00

Powered by AerisWeather